Regional Weather Roundup
Issued by NWS Kansas City/Pleasant Hill, MO

Home | Current Version | Previous Version | Text Only | Print | Product List | Glossary On
Versions: 1 2 3 4 5 6 7 8 9 10 11 12 13 14 15 16 17 18 19 20 21 22 23 24 25 26 27 28 29 30 31 32 33 34 35 36 37 38 39 40 41 42 43 44 45 46 47 48 49 50
000
ASUS43 KEAX 280310
RWREAX

WEATHER ROUNDUP FOR EASTERN KANSAS AND NORTHWEST MISSOURI
NATIONAL WEATHER SERVICE KANSAS CITY/PLEASANT HILL MO
1000 PM CDT TUE JUN 27 2017

KSZ040-057-103>105-MOZ028-029-037-043-280400-
...KANSAS CITY METROPOLITAN AREA...

CITY           SKY/WX    TMP DP  RH WIND       PRES   REMARKS
K.C. INTL      PTCLDY    75  67  76 S13       29.89S
K.C. DOWNTOWN  CLEAR     78  67  68 S9        29.88S
LEES SUMMIT    CLEAR     76  66  71 SE14      29.91S
OLATHE - IXD   CLEAR     75  66  73 SE12      29.90R
OLATHE - OJC   CLEAR     74  67  78 S10       29.90S
LAWRENCE       CLEAR     74  69  85 SE8       29.87S

$$

MOZ001>008-011>017-020>025-030>033-038>040-044>046-053-054-280400-
...NORTHERN AND CENTRAL MISSOURI...

CITY           SKY/WX    TMP DP  RH WIND       PRES   REMARKS
ST. JOSEPH     CLOUDY    76  67  73 S10       29.87S
MOSBY          CLEAR     73  64  73 SE5       29.90S
WARRENSBURG    CLEAR     72  64  78 SE7       29.92S
WHITEMAN AFB   PTCLDY    74  74 100 S10       29.93R
CLINTON        CLEAR     73  66  78 SE8       29.94S
SEDALIA        CLEAR     73  68  84 SE9       29.96S
WARSAW         NOT AVBL
CHILLICOTHE      N/A     75  64  68 SE8       29.93R
KIRKSVILLE     CLOUDY    69  57  65 SE8       29.96S

$$

MOZ041-047>049-056>058-063>065-088>090-097-280400-
...EASTERN AND SOUTHERN MISSOURI...

CITY           SKY/WX    TMP DP  RH WIND       PRES   REMARKS
ST. LOUIS INTL PTCLDY    77  50  38 S10       30.02R
SPIRIT OF STL  CLEAR     72  54  53 SE6       30.00R
COLUMBIA       CLEAR     70  62  76 SE8       29.99R
JEFFERSON CITY CLEAR     74  62  66 SE6       29.98R
ROLLA          CLEAR     70  62  76 SE9       30.01R
OSAGE BEACH    CLEAR     71  65  81 SE3       30.00R
SPRINGFIELD    CLEAR     74  64  71 SE13      29.99R
BRANSON        CLEAR     72  64  78 SE5       30.04R
JOPLIN         CLEAR     76  66  71 SE7       29.95S
WEST PLAINS    CLEAR     70  63  78 SE5       30.06S

$$

IAZ060-094-KSZ022-034>040-054-083-096-NEZ052-066-093-280400-
...KANSAS...SOUTHEAST NEBRASKA AND IOWA...

CITY           SKY/WX    TMP DP  RH WIND       PRES   REMARKS
TOPEKA         CLEAR     77  66  68 SE10      29.85S
MANHATTAN      CLOUDY    80  65  59 S15G23    29.80R
EMPORIA        CLEAR     77  64  64 S16       29.86R
CHANUTE        CLEAR     77  63  61 S14       29.90S
WICHITA        CLOUDY    81  67  62 S15       29.84R
OMAHA          CLOUDY    77  65  66 SE21      29.78S
LINCOLN        PTCLDY    77  66  68 S21G29    29.75R
FALLS CITY     CLEAR     74  66  76 SE15      29.82S
LAMONI         PTCLDY    71  61  70 SE8       29.90S
DES MOINES     CLOUDY    74  56  53 SE12      29.89R

$$




USA.gov is the U.S. government's official web portal to all federal, state and local government web resources and services.